Find SaudiComsat-5

NORAD ID: 31124 Int'l Des: 2007-012 Owner: KACST Country: SA operational
LEOCIRCULARRETROGRADESSO

Live Position

Loading 3D Globe...

About SaudiComsat-5

Description loading...

Upcoming Passes

Passes for default location (London). Set your location on the main map for personalized predictions.

Altitude History

Loading altitude history...

Two-Line Element Set

1 31124U 07012H 26105.86071845 .00000365 00000-0 71909-4 0 9998
2 31124 98.3448 79.4961 0046655 323.1125 36.6872 14.68081379 14451
Epoch: Apr 15, 2026 • Age: 14 hours

Current Status

Altitude 706.8 km
Velocity 7.49 km/s
Sub-Earth Point 70.10°N, 74.25°W
Launch Date Apr 17, 2007
Age 18.9 years
Type other

Technical Details

Classification Payload
Mass 12.00 kg
Dry Mass 12.00 kg
Total Mass 12.00 kg
Length 0.20 m
Diameter 0.20 m
Span 0.20 m
Shape Box
Manufacturer KACST
Bus Type Saudisat
Phase Status In Orbit
Owner/State KACST/SA

Most Searched